| time (UTC) | temp F | wind direction | speed MPH | gust MPH | rain 1hr in | rain 24hr in | rain mn in | humidity % | barometer mb |
| 20260504185305 | 73 | 242 | 9.0 | 16.0 | 0.00 | 0.00 | 0.00 | 35 | 1010.3 |
| 20260504184805 | 72 | 227 | 6.0 | 16.0 | 0.00 | 0.00 | 0.00 | 38 | 1010.3 |
| 20260504184305 | 72 | 180 | 4.0 | 12.0 | 0.00 | 0.00 | 0.00 | 37 | 1010.4 |
| 20260504183805 | 72 | 284 | 8.0 | 12.0 | 0.00 | 0.00 | 0.00 | 35 | 1010.5 |
| 20260504183305 | 72 | 273 | 5.0 | 12.0 | 0.00 | 0.00 | 0.00 | 38 | 1010.4 |
| 20260504182805 | 72 | 255 | 8.0 | 14.0 | 0.00 | 0.00 | 0.00 | 37 | 1010.6 |
| 20260504182306 | 72 | 201 | 7.0 | 13.0 | 0.00 | 0.00 | 0.00 | 37 | 1010.7 |
| 20260504181805 | 73 | 185 | 5.0 | 12.0 | 0.00 | 0.00 | 0.00 | 37 | 1010.7 |
| 20260504181306 | 72 | 248 | 3.0 | 13.0 | 0.00 | 0.00 | 0.00 | 40 | 1010.6 |
| 20260504180806 | 71 | 244 | 9.0 | 17.0 | 0.00 | 0.00 | 0.00 | 36 | 1010.8 |
| 20260504175805 | 71 | 173 | 9.0 | 15.0 | 0.00 | 0.00 | 0.00 | 41 | 1011.0 |
| 20260504175306 | 71 | 229 | 8.0 | 16.0 | 0.00 | 0.00 | 0.00 | 38 | 1011.0 |
| 20260504174805 | 71 | 246 | 8.0 | 16.0 | 0.00 | 0.00 | 0.00 | 38 | 1011.1 |
| 20260504174305 | 70 | 257 | 9.0 | 15.0 | 0.00 | 0.00 | 0.00 | 37 | 1011.1 |
| 20260504173805 | 70 | 268 | 7.0 | 16.0 | 0.00 | 0.00 | 0.00 | 36 | 1011.1 |
| 20260504172805 | 70 | 270 | 7.0 | 14.0 | 0.00 | 0.00 | 0.00 | 38 | 1011.2 |
| 20260504171805 | 70 | 260 | 11.0 | 20.0 | 0.00 | 0.00 | 0.00 | 37 | 1011.4 |
| 20260504171305 | 71 | 220 | 9.0 | 20.0 | 0.00 | 0.00 | 0.00 | 38 | 1011.5 |
| 20260504170805 | 70 | 144 | 4.0 | 9.0 | 0.00 | 0.00 | 0.00 | 40 | 1011.5 |
| 20260504170304 | 70 | 251 | 6.0 | 15.0 | 0.00 | 0.00 | 0.00 | 37 | 1011.6 |
| 20260504160306 | 67 | 228 | 9.0 | 15.0 | 0.00 | 0.00 | 0.00 | 37 | 1012.5 |
| 20260504150805 | 65 | 269 | 6.0 | 15.0 | 0.00 | 0.00 | 0.00 | 41 | 1013.2 |
| 20260504150304 | 65 | 205 | 7.0 | 13.0 | 0.00 | 0.00 | 0.00 | 41 | 1013.3 |
| 20260504141304 | 62 | 207 | 6.0 | 15.0 | 0.00 | 0.00 | 0.00 | 44 | 1013.4 |
| 20260504140805 | 61 | 208 | 5.0 | 10.0 | 0.00 | 0.00 | 0.00 | 49 | 1013.5 |
| 20260504140305 | 61 | 217 | 8.0 | 14.0 | 0.00 | 0.00 | 0.00 | 45 | 1013.4 |
| 20260504130305 | 55 | 260 | 6.0 | 12.0 | 0.00 | 0.00 | 0.00 | 50 | 1013.8 |
| 20260504120304 | 52 | 245 | 5.0 | 10.0 | 0.00 | 0.00 | 0.00 | 49 | 1013.9 |
| 20260504110305 | 49 | 212 | 4.0 | 9.0 | 0.00 | 0.00 | 0.00 | 51 | 1013.8 |
| 20260504100305 | 47 | 216 | 5.0 | 10.0 | 0.00 | 0.00 | 0.00 | 54 | 1013.9 |
| 20260504081804 | 48 | 201 | 6.0 | 9.0 | 0.00 | 0.00 | 0.00 | 53 | 1014.1 |
| 20260504081305 | 48 | 206 | 6.0 | 12.0 | 0.00 | 0.00 | 0.00 | 53 | 1014.1 |
| 20260504080805 | 48 | 206 | 6.0 | 10.0 | 0.00 | 0.00 | 0.00 | 53 | 1014.1 |
| 20260504080304 | 48 | 208 | 6.0 | 12.0 | 0.00 | 0.00 | 0.00 | 54 | 1014.0 |
| 20260504070304 | 48 | 215 | 8.0 | 12.0 | 0.00 | 0.00 | 0.00 | 52 | 1014.1 |
| 20260504050304 | 51 | 220 | 8.0 | 14.0 | 0.00 | 0.00 | 0.00 | 46 | 1014.2 |
| 20260504045804 | 51 | 223 | 9.0 | 16.0 | 0.00 | 0.00 | 0.00 | 47 | 1014.2 |
| 20260504045305 | 51 | 213 | 8.0 | 14.0 | 0.00 | 0.00 | 0.00 | 47 | 1014.1 |
| 20260504044804 | 51 | 223 | 8.0 | 13.0 | 0.00 | 0.00 | 0.00 | 48 | 1014.1 |
| 20260504044304 | 50 | 227 | 8.0 | 14.0 | 0.00 | 0.00 | 0.00 | 48 | 1014.1 |
| 20260504043804 | 50 | 221 | 7.0 | 13.0 | 0.00 | 0.00 | 0.00 | 48 | 1014.1 |
| 20260504043304 | 50 | 220 | 7.0 | 17.0 | 0.00 | 0.00 | 0.00 | 48 | 1014.2 |
| 20260504041804 | 51 | 217 | 7.0 | 12.0 | 0.00 | 0.00 | 0.00 | 47 | 1014.1 |
| 20260504041304 | 51 | 220 | 7.0 | 14.0 | 0.00 | 0.00 | 0.00 | 46 | 1014.0 |
| 20260504040817 | 51 | 205 | 7.0 | 12.0 | 0.00 | 0.00 | 0.00 | 46 | 1014.0 |
| 20260504040304 | 51 | 212 | 7.0 | 13.0 | 0.00 | 0.00 | 0.00 | 46 | 1014.0 |
| 20260504035804 | 51 | 213 | 7.0 | 13.0 | 0.00 | 0.00 | 0.00 | 46 | 1013.9 |
| 20260504034804 | 52 | 210 | 7.0 | 14.0 | 0.00 | 0.00 | 0.00 | 44 | 1013.8 |
| 20260504033804 | 52 | 216 | 7.0 | 12.0 | 0.00 | 0.00 | 0.00 | 45 | 1013.7 |
| 20260504033304 | 52 | 216 | 6.0 | 12.0 | 0.00 | 0.00 | 0.00 | 45 | 1013.6 |
| 20260504032803 | 52 | 216 | 7.0 | 10.0 | 0.00 | 0.00 | 0.00 | 44 | 1013.5 |
| 20260504032304 | 52 | 207 | 7.0 | 12.0 | 0.00 | 0.00 | 0.00 | 44 | 1013.5 |
| 20260504031804 | 52 | 212 | 7.0 | 12.0 | 0.00 | 0.00 | 0.00 | 44 | 1013.5 |
| 20260504031304 | 52 | 215 | 7.0 | 12.0 | 0.00 | 0.00 | 0.00 | 44 | 1013.4 |
| 20260504030304 | 52 | 217 | 6.0 | 13.0 | 0.00 | 0.00 | 0.00 | 44 | 1013.4 |
| 20260504025803 | 52 | 215 | 6.0 | 13.0 | 0.00 | 0.00 | 0.00 | 43 | 1013.3 |
| 20260504025305 | 52 | 217 | 7.0 | 12.0 | 0.00 | 0.00 | 0.00 | 43 | 1013.4 |
| 20260504024804 | 53 | 223 | 6.0 | 12.0 | 0.00 | 0.00 | 0.00 | 43 | 1013.4 |
| 20260504023804 | 53 | 214 | 6.0 | 12.0 | 0.00 | 0.00 | 0.00 | 42 | 1013.4 |
| 20260504023304 | 53 | 220 | 5.0 | 8.0 | 0.00 | 0.00 | 0.00 | 41 | 1013.4 |
| 20260504022803 | 53 | 226 | 5.0 | 8.0 | 0.00 | 0.00 | 0.00 | 42 | 1013.4 |
| 20260504022305 | 53 | 222 | 5.0 | 8.0 | 0.00 | 0.00 | 0.00 | 42 | 1013.5 |
| 20260504021804 | 53 | 215 | 6.0 | 12.0 | 0.00 | 0.00 | 0.00 | 42 | 1013.5 |
| 20260504021304 | 53 | 222 | 6.0 | 9.0 | 0.00 | 0.00 | 0.00 | 42 | 1013.5 |
| 20260504020304 | 53 | 218 | 5.0 | 9.0 | 0.00 | 0.00 | 0.00 | 44 | 1013.6 |
| 20260504015804 | 53 | 236 | 5.0 | 7.0 | 0.00 | 0.00 | 0.00 | 44 | 1013.4 |
| 20260504015304 | 52 | 236 | 5.0 | 8.0 | 0.00 | 0.00 | 0.00 | 45 | 1013.4 |
| 20260504014804 | 52 | 232 | 4.0 | 7.0 | 0.00 | 0.00 | 0.00 | 45 | 1013.4 |
| 20260504014305 | 52 | 235 | 4.0 | 5.0 | 0.00 | 0.00 | 0.00 | 45 | 1013.4 |
| 20260504013806 | 52 | 229 | 3.0 | 7.0 | 0.00 | 0.00 | 0.00 | 45 | 1013.3 |
| 20260504013306 | 53 | 243 | 3.0 | 7.0 | 0.00 | 0.00 | 0.00 | 44 | 1013.3 |
| 20260504012805 | 53 | 235 | 4.0 | 8.0 | 0.00 | 0.00 | 0.00 | 43 | 1013.3 |
| 20260504012306 | 54 | 236 | 5.0 | 10.0 | 0.00 | 0.00 | 0.00 | 42 | 1013.4 |
| 20260504011806 | 54 | 237 | 5.0 | 8.0 | 0.00 | 0.00 | 0.00 | 41 | 1013.3 |
| 20260504011306 | 54 | 240 | 4.0 | 7.0 | 0.00 | 0.00 | 0.00 | 41 | 1013.3 |
| 20260504010805 | 54 | 240 | 5.0 | 7.0 | 0.00 | 0.00 | 0.00 | 40 | 1013.2 |
| 20260504010306 | 54 | 238 | 4.0 | 10.0 | 0.00 | 0.00 | 0.00 | 41 | 1013.2 |
| 20260504005806 | 55 | 253 | 5.0 | 8.0 | 0.00 | 0.00 | 0.00 | 39 | 1013.2 |
| 20260504004806 | 55 | 245 | 5.0 | 9.0 | 0.00 | 0.00 | 0.00 | 38 | 1013.2 |
| 20260504004305 | 56 | 240 | 5.0 | 10.0 | 0.00 | 0.00 | 0.00 | 37 | 1013.2 |
| 20260504003806 | 56 | 260 | 6.0 | 12.0 | 0.00 | 0.00 | 0.00 | 36 | 1013.1 |
| 20260504003306 | 56 | 259 | 5.0 | 15.0 | 0.00 | 0.00 | 0.00 | 36 | 1013.0 |
| 20260504002805 | 56 | 254 | 6.0 | 9.0 | 0.00 | 0.00 | 0.00 | 37 | 1012.9 |
| 20260504002306 | 56 | 267 | 5.0 | 9.0 | 0.00 | 0.00 | 0.00 | 37 | 1012.8 |
| 20260504001305 | 56 | 270 | 4.0 | 9.0 | 0.00 | 0.00 | 0.00 | 36 | 1012.6 |
| 20260503235806 | 57 | 263 | 4.0 | 9.0 | 0.00 | 0.00 | 0.00 | 37 | 1012.5 |
| 20260503235306 | 57 | 257 | 5.0 | 10.0 | 0.00 | 0.00 | 0.00 | 36 | 1012.5 |
| 20260503234805 | 57 | 255 | 5.0 | 10.0 | 0.00 | 0.00 | 0.00 | 36 | 1012.4 |
| 20260503234306 | 57 | 260 | 5.0 | 13.0 | 0.00 | 0.00 | 0.00 | 36 | 1012.4 |
| 20260503233305 | 58 | 284 | 6.0 | 14.0 | 0.00 | 0.00 | 0.00 | 35 | 1012.3 |
| 20260503232805 | 58 | 256 | 6.0 | 12.0 | 0.00 | 0.00 | 0.00 | 35 | 1012.3 |
| 20260503232306 | 58 | 259 | 5.0 | 13.0 | 0.00 | 0.00 | 0.00 | 35 | 1012.3 |
| 20260503231806 | 58 | 260 | 3.0 | 12.0 | 0.00 | 0.00 | 0.00 | 35 | 1012.3 |
| 20260503231306 | 58 | 255 | 6.0 | 12.0 | 0.00 | 0.00 | 0.00 | 34 | 1012.2 |
| 20260503230805 | 58 | 253 | 5.0 | 12.0 | 0.00 | 0.00 | 0.00 | 35 | 1012.2 |
| 20260503230306 | 58 | 263 | 7.0 | 15.0 | 0.00 | 0.00 | 0.00 | 35 | 1012.2 |
| 20260503225305 | 59 | 265 | 6.0 | 12.0 | 0.00 | 0.00 | 0.00 | 35 | 1012.2 |
| 20260503224806 | 59 | 244 | 3.0 | 14.0 | 0.00 | 0.00 | 0.00 | 36 | 1012.1 |
| 20260503224305 | 59 | 271 | 6.0 | 13.0 | 0.00 | 0.00 | 0.00 | 34 | 1012.1 |
| 20260503223806 | 59 | 289 | 4.0 | 12.0 | 0.00 | 0.00 | 0.00 | 36 | 1012.1 |
| 20260503223305 | 59 | 259 | 8.0 | 13.0 | 0.00 | 0.00 | 0.00 | 34 | 1012.1 |
| 20260503222805 | 59 | 253 | 5.0 | 15.0 | 0.00 | 0.00 | 0.00 | 34 | 1012.1 |
| 20260503221806 | 59 | 283 | 3.0 | 10.0 | 0.00 | 0.00 | 0.00 | 35 | 1012.1 |
| 20260503221305 | 59 | 282 | 3.0 | 8.0 | 0.00 | 0.00 | 0.00 | 34 | 1012.1 |
| 20260503220805 | 60 | 297 | 6.0 | 15.0 | 0.00 | 0.00 | 0.00 | 34 | 1012.2 |
| 20260503220306 | 60 | 270 | 6.0 | 14.0 | 0.00 | 0.00 | 0.00 | 33 | 1012.2 |
| 20260503215806 | 60 | 274 | 5.0 | 12.0 | 0.00 | 0.00 | 0.00 | 34 | 1012.2 |
| 20260503214806 | 60 | 276 | 4.0 | 15.0 | 0.00 | 0.00 | 0.00 | 34 | 1012.1 |
| 20260503213805 | 60 | 266 | 9.0 | 17.0 | 0.00 | 0.00 | 0.00 | 33 | 1012.0 |
| 20260503212305 | 61 | 280 | 5.0 | 10.0 | 0.00 | 0.00 | 0.00 | 32 | 1011.9 |
| 20260503211806 | 61 | 264 | 7.0 | 16.0 | 0.00 | 0.00 | 0.00 | 33 | 1011.9 |
| 20260503211305 | 60 | 276 | 6.0 | 13.0 | 0.00 | 0.00 | 0.00 | 33 | 1011.9 |
| 20260503210805 | 60 | 308 | 3.0 | 12.0 | 0.00 | 0.00 | 0.00 | 34 | 1011.9 |
| 20260503210305 | 59 | 309 | 3.0 | 10.0 | 0.00 | 0.00 | 0.00 | 35 | 1012.0 |
| 20260503205805 | 59 | 274 | 6.0 | 12.0 | 0.00 | 0.00 | 0.00 | 33 | 1012.1 |
| 20260503205305 | 58 | 288 | 3.0 | 7.0 | 0.00 | 0.00 | 0.00 | 35 | 1012.1 |
| 20260503204806 | 58 | 297 | 3.0 | 9.0 | 0.00 | 0.00 | 0.00 | 36 | 1012.2 |
| 20260503204306 | 59 | 283 | 5.0 | 12.0 | 0.00 | 0.00 | 0.00 | 32 | 1012.2 |
| 20260503203805 | 59 | 290 | 2.0 | 10.0 | 0.00 | 0.00 | 0.00 | 33 | 1012.1 |
| 20260503203305 | 59 | 264 | 4.0 | 12.0 | 0.00 | 0.00 | 0.00 | 34 | 1012.2 |
| 20260503202805 | 60 | 324 | 6.0 | 14.0 | 0.00 | 0.00 | 0.00 | 32 | 1012.2 |
| 20260503202306 | 60 | 272 | 5.0 | 16.0 | 0.00 | 0.00 | 0.00 | 32 | 1012.3 |
| 20260503201305 | 60 | 259 | 9.0 | 20.0 | 0.00 | 0.00 | 0.00 | 30 | 1012.3 |
| 20260503200806 | 60 | 307 | 7.0 | 15.0 | 0.00 | 0.00 | 0.00 | 32 | 1012.3 |
| 20260503200306 | 60 | 277 | 8.0 | 13.0 | 0.00 | 0.00 | 0.00 | 31 | 1012.3 |
| 20260503195805 | 60 | 309 | 6.0 | 20.0 | 0.00 | 0.00 | 0.00 | 33 | 1012.3 |
| 20260503195305 | 60 | 258 | 6.0 | 14.0 | 0.00 | 0.00 | 0.00 | 36 | 1012.3 |
| 20260503194805 | 60 | 283 | 7.0 | 17.0 | 0.00 | 0.00 | 0.00 | 30 | 1012.5 |
| 20260503194305 | 60 | 283 | 9.0 | 20.0 | 0.00 | 0.00 | 0.00 | 33 | 1012.5 |
| 20260503193806 | 59 | 286 | 8.0 | 18.0 | 0.00 | 0.00 | 0.00 | 31 | 1012.6 |
| 20260503193305 | 60 | 302 | 6.0 | 16.0 | 0.00 | 0.00 | 0.00 | 35 | 1012.8 |
| 20260503192306 | 59 | 265 | 3.0 | 15.0 | 0.00 | 0.00 | 0.00 | 33 | 1013.0 |
| 20260503191805 | 59 | 317 | 7.0 | 18.0 | 0.00 | 0.00 | 0.00 | 33 | 1013.1 |
| 20260503191305 | 59 | 318 | 11.0 | 22.0 | 0.00 | 0.00 | 0.00 | 33 | 1013.2 |
| 20260503190805 | 59 | 281 | 5.0 | 12.0 | 0.00 | 0.00 | 0.00 | 36 | 1013.1 |
| 20260503185805 | 58 | 321 | 5.0 | 13.0 | 0.00 | 0.00 | 0.00 | 32 | 1013.3 |